Time,TemperatureF,DewpointF,PressureIn,WindDirection,WindDirectionDegrees,WindSpeedMPH,WindSpeedGustMPH,Humidity,HourlyPrecipIn,Conditions,Clouds,dailyrainin,SoftwareType,DateUTC
2013-05-24 00:02:00,64.6,55.8,30.30,East,86,11.0,18.0,73,0.00,,,0.00,meteohub,2013-05-24 05:02:00,
2013-05-24 00:07:00,64.6,55.8,30.29,East,81,12.0,17.0,73,0.00,,,0.00,meteohub,2013-05-24 05:07:00,
2013-05-24 00:12:00,64.2,55.8,30.30,ENE,65,10.0,19.0,74,0.00,,,0.00,meteohub,2013-05-24 05:12:00,
2013-05-24 00:17:00,64.2,55.8,30.30,East,95,10.0,19.0,74,0.00,,,0.00,meteohub,2013-05-24 05:17:00,
2013-05-24 00:22:00,64.0,55.6,30.30,ENE,69,8.0,19.0,74,0.00,,,0.00,meteohub,2013-05-24 05:22:00,
2013-05-24 00:27:00,64.0,55.6,30.30,ENE,69,12.0,19.0,74,0.00,,,0.00,meteohub,2013-05-24 05:27:00,
2013-05-24 00:32:00,63.9,55.8,30.30,East,91,10.0,19.0,75,0.00,,,0.00,meteohub,2013-05-24 05:32:00,
2013-05-24 00:37:00,63.9,55.8,30.30,East,87,8.0,16.0,75,0.00,,,0.00,meteohub,2013-05-24 05:37:00,
2013-05-24 00:42:00,63.7,55.6,30.30,ENE,74,18.0,18.0,75,0.00,,,0.00,meteohub,2013-05-24 05:42:00,
2013-05-24 00:47:00,63.7,55.6,30.29,ENE,71,11.0,19.0,75,0.00,,,0.00,meteohub,2013-05-24 05:47:00,
2013-05-24 00:52:00,63.5,55.8,30.30,ENE,71,7.0,19.0,76,0.00,,,0.00,meteohub,2013-05-24 05:52:00,
2013-05-24 00:57:00,63.3,55.6,30.30,East,90,12.0,19.0,76,0.00,,,0.00,meteohub,2013-05-24 05:57:00,
2013-05-24 01:02:00,63.3,55.6,30.30,East,98,10.0,18.0,76,0.00,,,0.00,meteohub,2013-05-24 06:02:00,
2013-05-24 01:07:00,63.1,55.8,30.30,East,101,10.0,18.0,77,0.00,,,0.00,meteohub,2013-05-24 06:07:00,
2013-05-24 01:12:00,63.0,55.6,30.30,East,89,12.0,18.0,77,0.00,,,0.00,meteohub,2013-05-24 06:12:00,
2013-05-24 01:17:00,63.0,55.6,30.30,East,94,9.0,18.0,77,0.00,,,0.00,meteohub,2013-05-24 06:17:00,
2013-05-24 01:22:00,62.8,55.8,30.31,East,86,10.0,16.0,78,0.00,,,0.00,meteohub,2013-05-24 06:22:00,
2013-05-24 01:27:00,62.4,55.4,30.31,East,99,13.0,18.0,78,0.00,,,0.00,meteohub,2013-05-24 06:27:00,
2013-05-24 01:32:00,62.4,55.8,30.31,East,89,10.0,19.0,79,0.00,,,0.00,meteohub,2013-05-24 06:32:00,
2013-05-24 01:37:00,62.2,55.6,30.31,East,101,12.0,19.0,79,0.00,,,0.00,meteohub,2013-05-24 06:37:00,
2013-05-24 01:42:00,62.1,55.4,30.31,ENE,74,18.0,19.0,79,0.00,,,0.00,meteohub,2013-05-24 06:42:00,
2013-05-24 01:47:00,61.9,55.6,30.31,East,100,9.0,20.0,80,0.00,,,0.00,meteohub,2013-05-24 06:47:00,
2013-05-24 01:52:00,61.7,55.4,30.32,ESE,103,6.0,20.0,80,0.00,,,0.00,meteohub,2013-05-24 06:52:00,
2013-05-24 01:57:00,61.5,55.6,30.32,East,86,7.0,20.0,81,0.00,,,0.00,meteohub,2013-05-24 06:57:00,
2013-05-24 02:02:00,61.3,55.4,30.31,ENE,72,11.0,17.0,81,0.00,,,0.00,meteohub,2013-05-24 07:02:00,
2013-05-24 02:07:00,61.2,55.2,30.32,ENE,78,7.0,17.0,81,0.00,,,0.00,meteohub,2013-05-24 07:07:00,
2013-05-24 02:13:00,61.0,55.4,30.32,ESE,105,10.0,17.0,82,0.00,,,0.00,meteohub,2013-05-24 07:13:00,
2013-05-24 02:18:00,60.8,55.2,30.31,East,82,14.0,17.0,82,0.00,,,0.00,meteohub,2013-05-24 07:18:00,
2013-05-24 02:23:00,60.6,55.0,30.32,ESE,110,5.0,16.0,82,0.00,,,0.00,meteohub,2013-05-24 07:23:00,
2013-05-24 02:28:00,60.4,55.2,30.32,East,83,14.0,16.0,83,0.00,,,0.00,meteohub,2013-05-24 07:28:00,
2013-05-24 02:33:00,60.4,55.2,30.32,ENE,73,17.0,17.0,83,0.00,,,0.00,meteohub,2013-05-24 07:33:00,
2013-05-24 02:38:00,60.3,55.0,30.32,East,99,11.0,19.0,83,0.00,,,0.00,meteohub,2013-05-24 07:38:00,
2013-05-24 02:43:00,60.3,55.0,30.33,East,80,12.0,19.0,83,0.00,,,0.00,meteohub,2013-05-24 07:43:00,
2013-05-24 02:48:00,60.1,54.9,30.33,East,90,12.0,19.0,83,0.00,,,0.00,meteohub,2013-05-24 07:48:00,
2013-05-24 02:53:00,59.9,55.0,30.33,ENE,77,11.0,17.0,84,0.00,,,0.00,meteohub,2013-05-24 07:53:00,
2013-05-24 02:58:00,59.9,55.0,30.33,ENE,75,16.0,16.0,84,0.00,,,0.00,meteohub,2013-05-24 07:58:00,
2013-05-24 03:03:00,59.7,54.9,30.33,East,88,19.0,19.0,84,0.00,,,0.00,meteohub,2013-05-24 08:03:00,
2013-05-24 03:08:00,59.7,54.9,30.32,ENE,71,12.0,19.0,84,0.00,,,0.00,meteohub,2013-05-24 08:08:00,
2013-05-24 03:13:00,59.7,54.9,30.32,East,96,10.0,19.0,84,0.00,,,0.00,meteohub,2013-05-24 08:13:00,
2013-05-24 03:18:00,59.5,54.7,30.32,ENE,72,8.0,19.0,84,0.00,,,0.00,meteohub,2013-05-24 08:18:00,
2013-05-24 03:23:00,59.4,54.5,30.32,ENE,74,15.0,17.0,84,0.00,,,0.00,meteohub,2013-05-24 08:23:00,
2013-05-24 03:28:00,59.4,54.5,30.32,East,79,13.0,21.0,84,0.00,,,0.00,meteohub,2013-05-24 08:28:00,
2013-05-24 03:33:00,59.2,54.3,30.32,ESE,103,13.0,22.0,84,0.00,,,0.00,meteohub,2013-05-24 08:33:00,
2013-05-24 03:38:00,59.2,54.3,30.32,East,91,10.0,22.0,84,0.00,,,0.00,meteohub,2013-05-24 08:38:00,
2013-05-24 03:43:00,59.0,54.1,30.31,East,81,19.0,19.0,84,0.00,,,0.00,meteohub,2013-05-24 08:43:00,
2013-05-24 03:48:00,59.0,54.1,30.32,East,81,13.0,19.0,84,0.00,,,0.00,meteohub,2013-05-24 08:48:00,
2013-05-24 03:53:00,58.8,53.6,30.31,East,81,13.0,22.0,83,0.00,,,0.00,meteohub,2013-05-24 08:53:00,
2013-05-24 03:58:00,58.8,53.6,30.32,East,89,15.0,22.0,83,0.00,,,0.00,meteohub,2013-05-24 08:58:00,
2013-05-24 04:03:00,58.8,53.6,30.31,East,79,12.0,20.0,83,0.00,,,0.00,meteohub,2013-05-24 09:03:00,
2013-05-24 04:08:00,58.8,53.6,30.31,ENE,77,12.0,20.0,83,0.00,,,0.00,meteohub,2013-05-24 09:08:00,
2013-05-24 04:13:00,58.6,53.4,30.32,East,90,13.0,20.0,83,0.00,,,0.00,meteohub,2013-05-24 09:13:00,
2013-05-24 04:18:00,58.6,53.4,30.32,ESE,107,18.0,20.0,83,0.00,,,0.00,meteohub,2013-05-24 09:18:00,
2013-05-24 04:23:00,58.6,53.4,30.33,East,87,9.0,20.0,83,0.00,,,0.00,meteohub,2013-05-24 09:23:00,
2013-05-24 04:28:00,58.6,53.4,30.33,East,94,13.0,18.0,83,0.00,,,0.00,meteohub,2013-05-24 09:28:00,
2013-05-24 04:33:00,58.6,53.4,30.33,East,83,13.0,18.0,83,0.00,,,0.00,meteohub,2013-05-24 09:33:00,
2013-05-24 04:38:00,58.6,53.4,30.33,East,80,11.0,17.0,83,0.00,,,0.00,meteohub,2013-05-24 09:38:00,
2013-05-24 04:43:00,58.6,53.4,30.33,ENE,75,17.0,23.0,83,0.00,,,0.00,meteohub,2013-05-24 09:43:00,
2013-05-24 04:48:00,58.6,53.4,30.32,ENE,65,15.0,23.0,83,0.00,,,0.00,meteohub,2013-05-24 09:48:00,
2013-05-24 04:53:00,58.6,53.4,30.32,ENE,78,13.0,23.0,83,0.00,,,0.00,meteohub,2013-05-24 09:53:00,
2013-05-24 04:58:00,58.5,53.2,30.32,East,92,13.0,23.0,83,0.00,,,0.00,meteohub,2013-05-24 09:58:00,
2013-05-24 05:03:00,58.5,53.2,30.32,NE,41,8.0,26.0,83,0.00,,,0.00,meteohub,2013-05-24 10:03:00,
2013-05-24 05:08:00,58.3,53.1,30.32,East,83,18.0,26.0,83,0.00,,,0.00,meteohub,2013-05-24 10:08:00,
2013-05-24 05:14:00,58.3,53.1,30.32,East,91,12.0,20.0,83,0.00,,,0.00,meteohub,2013-05-24 10:14:00,
2013-05-24 05:19:00,58.3,53.4,30.33,East,98,13.0,20.0,84,0.00,,,0.00,meteohub,2013-05-24 10:19:00,
2013-05-24 05:24:00,58.1,53.2,30.33,ESE,112,13.0,18.0,84,0.00,,,0.00,meteohub,2013-05-24 10:24:00,
2013-05-24 05:29:00,57.9,53.1,30.33,ESE,112,7.0,18.0,84,0.00,,,0.00,meteohub,2013-05-24 10:29:00,
2013-05-24 05:34:00,57.9,53.1,30.32,SE,127,10.0,20.0,84,0.00,,,0.00,meteohub,2013-05-24 10:34:00,
2013-05-24 05:39:00,57.9,53.4,30.32,ENE,77,11.0,20.0,85,0.00,,,0.00,meteohub,2013-05-24 10:39:00,
2013-05-24 05:44:00,57.7,53.2,30.32,East,99,10.0,20.0,85,0.00,,,0.00,meteohub,2013-05-24 10:44:00,
2013-05-24 05:49:00,57.7,53.2,30.32,East,94,12.0,20.0,85,0.00,,,0.00,meteohub,2013-05-24 10:49:00,
2013-05-24 05:54:00,57.7,53.2,30.32,East,99,10.0,20.0,85,0.00,,,0.00,meteohub,2013-05-24 10:54:00,
2013-05-24 05:59:00,57.7,53.2,30.32,East,91,9.0,20.0,85,0.00,,,0.00,meteohub,2013-05-24 10:59:00,
2013-05-24 06:04:00,57.6,53.1,30.32,East,82,13.0,22.0,85,0.00,,,0.00,meteohub,2013-05-24 11:04:00,
2013-05-24 06:09:00,57.6,53.1,30.32,ESE,115,13.0,22.0,85,0.00,,,0.00,meteohub,2013-05-24 11:09:00,
2013-05-24 06:14:00,57.6,53.4,30.32,East,88,13.0,20.0,86,0.00,,,0.00,meteohub,2013-05-24 11:14:00,
2013-05-24 06:19:00,57.6,53.4,30.32,East,79,12.0,20.0,86,0.00,,,0.00,meteohub,2013-05-24 11:19:00,
2013-05-24 06:24:00,57.6,53.4,30.32,SE,129,10.0,20.0,86,0.00,,,0.00,meteohub,2013-05-24 11:24:00,
2013-05-24 06:29:00,57.6,53.4,30.32,East,100,11.0,21.0,86,0.00,,,0.00,meteohub,2013-05-24 11:29:00,
2013-05-24 06:34:00,57.6,53.4,30.32,ENE,75,12.0,22.0,86,0.00,,,0.00,meteohub,2013-05-24 11:34:00,
2013-05-24 06:39:00,57.6,53.4,30.32,SSE,165,15.0,22.0,86,0.00,,,0.00,meteohub,2013-05-24 11:39:00,
2013-05-24 06:44:00,57.6,53.4,30.32,East,94,12.0,22.0,86,0.00,,,0.00,meteohub,2013-05-24 11:44:00,
2013-05-24 06:49:00,57.6,53.4,30.31,East,91,16.0,24.0,86,0.00,,,0.00,meteohub,2013-05-24 11:49:00,
2013-05-24 06:54:00,57.6,53.4,30.31,East,84,10.0,24.0,86,0.00,,,0.00,meteohub,2013-05-24 11:54:00,
2013-05-24 06:59:00,57.7,53.6,30.31,East,96,12.0,24.0,86,0.00,,,0.00,meteohub,2013-05-24 11:59:00,
2013-05-24 07:04:00,57.7,53.6,30.31,East,88,15.0,24.0,86,0.00,,,0.00,meteohub,2013-05-24 12:04:00,
2013-05-24 07:09:00,57.9,53.8,30.31,East,88,15.0,22.0,86,0.00,,,0.00,meteohub,2013-05-24 12:09:00,
2013-05-24 07:14:00,58.1,53.6,30.31,East,81,15.0,23.0,85,0.00,,,0.00,meteohub,2013-05-24 12:14:00,
2013-05-24 07:19:00,58.5,54.0,30.31,East,89,21.0,25.0,85,0.00,,,0.00,meteohub,2013-05-24 12:19:00,
2013-05-24 07:24:00,58.5,53.6,30.31,ENE,70,11.0,28.0,84,0.00,,,0.00,meteohub,2013-05-24 12:24:00,
2013-05-24 07:29:00,58.8,54.0,30.31,ESE,103,14.0,28.0,84,0.00,,,0.00,meteohub,2013-05-24 12:29:00,
2013-05-24 07:34:00,59.0,53.8,30.32,SE,129,24.0,28.0,83,0.00,,,0.00,meteohub,2013-05-24 12:34:00,
2013-05-24 07:39:00,59.0,53.8,30.32,East,84,17.0,25.0,83,0.00,,,0.00,meteohub,2013-05-24 12:39:00,
2013-05-24 07:44:00,59.0,53.8,30.32,ESE,105,12.0,24.0,83,0.00,,,0.00,meteohub,2013-05-24 12:44:00,
2013-05-24 07:49:00,59.2,54.0,30.32,East,89,18.0,24.0,83,0.00,,,0.00,meteohub,2013-05-24 12:49:00,
2013-05-24 07:54:00,59.4,53.8,30.32,ESE,105,14.0,20.0,82,0.00,,,0.00,meteohub,2013-05-24 12:54:00,
2013-05-24 07:59:00,59.7,54.1,30.32,East,92,19.0,24.0,82,0.00,,,0.00,meteohub,2013-05-24 12:59:00,
2013-05-24 08:04:00,59.9,54.3,30.33,ESE,105,16.0,24.0,82,0.00,,,0.00,meteohub,2013-05-24 13:04:00,
2013-05-24 08:09:00,60.1,54.3,30.32,ESE,110,14.0,25.0,81,0.00,,,0.00,meteohub,2013-05-24 13:09:00,
2013-05-24 08:15:00,60.3,54.1,30.32,East,91,18.0,25.0,80,0.00,,,0.00,meteohub,2013-05-24 13:15:00,
2013-05-24 08:20:00,60.3,54.3,30.32,East,90,16.0,25.0,81,0.00,,,0.00,meteohub,2013-05-24 13:20:00,
2013-05-24 08:25:00,60.3,54.1,30.32,East,97,18.0,30.0,80,0.00,,,0.00,meteohub,2013-05-24 13:25:00,
2013-05-24 08:30:00,60.4,54.5,30.32,East,82,19.0,30.0,81,0.00,,,0.00,meteohub,2013-05-24 13:30:00,
2013-05-24 08:35:00,61.0,54.5,30.31,ESE,119,19.0,30.0,79,0.00,,,0.00,meteohub,2013-05-24 13:35:00,
2013-05-24 08:40:00,61.3,54.9,30.31,ENE,78,17.0,25.0,79,0.00,,,0.00,meteohub,2013-05-24 13:40:00,
2013-05-24 08:45:00,61.2,54.7,30.31,East,101,19.0,25.0,79,0.00,,,0.00,meteohub,2013-05-24 13:45:00,
2013-05-24 08:50:00,61.5,54.7,30.32,East,94,13.0,28.0,78,0.00,,,0.00,meteohub,2013-05-24 13:50:00,
2013-05-24 08:55:00,62.1,55.0,30.32,East,98,8.0,31.0,78,0.00,,,0.00,meteohub,2013-05-24 13:55:00,
2013-05-24 09:00:00,62.4,55.0,30.33,ESE,118,12.0,31.0,77,0.00,,,0.00,meteohub,2013-05-24 14:00:00,
2013-05-24 09:05:00,62.8,55.4,30.33,ESE,122,17.0,27.0,77,0.00,,,0.00,meteohub,2013-05-24 14:05:00,
2013-05-24 09:10:00,62.8,55.0,30.33,East,91,20.0,24.0,76,0.00,,,0.00,meteohub,2013-05-24 14:10:00,
2013-05-24 09:15:00,63.3,55.2,30.33,East,83,15.0,23.0,75,0.00,,,0.00,meteohub,2013-05-24 14:15:00,
2013-05-24 09:20:00,63.3,55.2,30.32,East,83,20.0,23.0,75,0.00,,,0.00,meteohub,2013-05-24 14:20:00,
2013-05-24 09:25:00,63.5,55.4,30.32,East,88,21.0,24.0,75,0.00,,,0.00,meteohub,2013-05-24 14:25:00,
2013-05-24 09:30:00,63.7,55.6,30.32,ESE,102,11.0,24.0,75,0.00,,,0.00,meteohub,2013-05-24 14:30:00,
2013-05-24 09:35:00,63.9,55.4,30.32,East,94,19.0,24.0,74,0.00,,,0.00,meteohub,2013-05-24 14:35:00,
2013-05-24 09:40:00,64.2,56.1,30.32,ESE,114,17.0,27.0,75,0.00,,,0.00,meteohub,2013-05-24 14:40:00,
2013-05-24 09:45:00,64.4,55.9,30.33,ESE,122,8.0,27.0,74,0.00,,,0.00,meteohub,2013-05-24 14:45:00,
2013-05-24 09:50:00,64.9,56.1,30.33,ESE,108,15.0,27.0,73,0.00,,,0.00,meteohub,2013-05-24 14:50:00,
2013-05-24 09:55:00,65.1,56.3,30.34,ESE,102,12.0,22.0,73,0.00,,,0.00,meteohub,2013-05-24 14:55:00,
2013-05-24 10:00:00,65.3,56.8,30.34,SE,135,11.0,21.0,74,0.00,,,0.00,meteohub,2013-05-24 15:00:00,
2013-05-24 10:05:00,66.0,56.7,30.34,ESE,121,19.0,21.0,72,0.00,,,0.00,meteohub,2013-05-24 15:05:00,
2013-05-24 10:10:00,65.8,56.5,30.34,SE,124,9.0,20.0,72,0.00,,,0.00,meteohub,2013-05-24 15:10:00,
2013-05-24 10:15:00,65.7,56.8,30.34,ESE,107,16.0,19.0,73,0.00,,,0.00,meteohub,2013-05-24 15:15:00,
2013-05-24 10:20:00,65.5,56.7,30.34,ESE,106,16.0,19.0,73,0.00,,,0.00,meteohub,2013-05-24 15:20:00,
2013-05-24 10:25:00,65.7,56.8,30.34,SSE,163,3.0,21.0,73,0.00,,,0.00,meteohub,2013-05-24 15:25:00,
2013-05-24 10:30:00,65.8,57.4,30.34,ESE,108,9.0,21.0,74,0.00,,,0.00,meteohub,2013-05-24 15:30:00,
2013-05-24 10:35:00,66.0,57.2,30.34,SE,124,10.0,21.0,73,0.00,,,0.00,meteohub,2013-05-24 15:35:00,
2013-05-24 10:40:00,66.2,57.2,30.34,SE,140,9.0,18.0,73,0.00,,,0.00,meteohub,2013-05-24 15:40:00,
2013-05-24 10:45:00,66.2,57.2,30.33,ESE,115,17.0,18.0,73,0.00,,,0.00,meteohub,2013-05-24 15:45:00,
2013-05-24 10:50:00,66.4,57.9,30.33,East,87,11.0,20.0,74,0.00,,,0.00,meteohub,2013-05-24 15:50:00,
2013-05-24 10:55:00,66.7,57.7,30.33,East,89,17.0,23.0,73,0.00,,,0.00,meteohub,2013-05-24 15:55:00,
2013-05-24 11:00:00,67.3,57.9,30.33,ESE,107,13.0,23.0,72,0.00,,,0.00,meteohub,2013-05-24 16:00:00,
2013-05-24 11:05:00,67.3,57.9,30.32,ESE,106,15.0,21.0,72,0.00,,,0.00,meteohub,2013-05-24 16:05:00,
2013-05-24 11:10:00,67.8,58.5,30.32,East,89,17.0,23.0,72,0.00,,,0.00,meteohub,2013-05-24 16:10:00,
2013-05-24 11:15:00,67.6,57.9,30.32,ESE,113,16.0,23.0,71,0.00,,,0.00,meteohub,2013-05-24 16:15:00,
2013-05-24 11:20:00,67.8,58.5,30.32,East,93,6.0,27.0,72,0.00,,,0.00,meteohub,2013-05-24 16:20:00,
2013-05-24 11:25:00,68.0,57.9,30.33,SE,124,12.0,27.0,70,0.00,,,0.00,meteohub,2013-05-24 16:25:00,
2013-05-24 11:30:00,68.4,58.6,30.33,South,190,12.0,27.0,71,0.00,,,0.00,meteohub,2013-05-24 16:30:00,
2013-05-24 11:35:00,68.0,58.3,30.33,SE,124,13.0,25.0,71,0.00,,,0.00,meteohub,2013-05-24 16:35:00,
2013-05-24 11:40:00,68.2,58.8,30.33,ESE,118,14.0,25.0,72,0.00,,,0.00,meteohub,2013-05-24 16:40:00,
2013-05-24 11:45:00,68.2,58.8,30.33,ESE,106,11.0,22.0,72,0.00,,,0.00,meteohub,2013-05-24 16:45:00,
2013-05-24 11:50:00,68.4,59.0,30.33,ESE,103,14.0,18.0,72,0.00,,,0.00,meteohub,2013-05-24 16:50:00,
2013-05-24 11:55:00,68.5,58.8,30.33,ENE,75,9.0,18.0,71,0.00,,,0.00,meteohub,2013-05-24 16:55:00,
2013-05-24 12:00:00,68.5,58.8,30.33,ESE,108,9.0,24.0,71,0.00,,,0.00,meteohub,2013-05-24 17:00:00,
2013-05-24 12:05:00,68.5,59.2,30.33,ESE,113,15.0,21.0,72,0.00,,,0.00,meteohub,2013-05-24 17:05:00,
2013-05-24 12:10:00,68.7,59.4,30.33,East,90,9.0,21.0,72,0.00,,,0.00,meteohub,2013-05-24 17:10:00,
2013-05-24 12:15:00,69.1,59.7,30.33,ESE,110,12.0,21.0,72,0.00,,,0.00,meteohub,2013-05-24 17:15:00,
2013-05-24 12:20:00,69.3,59.5,30.32,SE,136,9.0,21.0,71,0.00,,,0.00,meteohub,2013-05-24 17:20:00,
2013-05-24 12:26:00,69.6,59.7,30.32,SE,128,7.0,21.0,71,0.00,,,0.00,meteohub,2013-05-24 17:26:00,
2013-05-24 12:31:00,70.0,59.7,30.32,ESE,114,10.0,19.0,70,0.00,,,0.00,meteohub,2013-05-24 17:31:00,
2013-05-24 12:36:00,70.0,60.1,30.32,ESE,105,14.0,20.0,71,0.00,,,0.00,meteohub,2013-05-24 17:36:00,
2013-05-24 12:41:00,70.5,60.3,30.32,ESE,110,16.0,20.0,70,0.00,,,0.00,meteohub,2013-05-24 17:41:00,
2013-05-24 12:46:00,70.3,60.1,30.32,ESE,121,11.0,20.0,70,0.00,,,0.00,meteohub,2013-05-24 17:46:00,
2013-05-24 12:51:00,70.3,60.4,30.32,SE,146,7.0,20.0,71,0.00,,,0.00,meteohub,2013-05-24 17:51:00,
2013-05-24 12:56:00,70.7,60.8,30.32,East,86,11.0,20.0,71,0.00,,,0.00,meteohub,2013-05-24 17:56:00,
2013-05-24 13:01:00,70.7,60.4,30.32,ESE,102,18.0,20.0,70,0.00,,,0.00,meteohub,2013-05-24 18:01:00,
2013-05-24 13:06:00,70.5,60.6,30.31,ESE,111,13.0,20.0,71,0.00,,,0.00,meteohub,2013-05-24 18:06:00,
2013-05-24 13:11:00,70.5,60.6,30.31,SSE,166,7.0,20.0,71,0.00,,,0.00,meteohub,2013-05-24 18:11:00,
2013-05-24 13:16:00,70.5,61.0,30.31,SE,127,11.0,20.0,72,0.00,,,0.00,meteohub,2013-05-24 18:16:00,
2013-05-24 13:21:00,70.9,61.0,30.30,East,84,12.0,20.0,71,0.00,,,0.00,meteohub,2013-05-24 18:21:00,
2013-05-24 13:26:00,71.1,61.2,30.30,East,92,12.0,20.0,71,0.00,,,0.00,meteohub,2013-05-24 18:26:00,
2013-05-24 13:31:00,71.1,61.2,30.30,ESE,110,16.0,20.0,71,0.00,,,0.00,meteohub,2013-05-24 18:31:00,
2013-05-24 13:36:00,71.1,61.5,30.30,East,95,11.0,24.0,72,0.00,,,0.00,meteohub,2013-05-24 18:36:00,
2013-05-24 13:41:00,71.4,61.5,30.30,East,98,20.0,24.0,71,0.00,,,0.00,meteohub,2013-05-24 18:41:00,
2013-05-24 13:46:00,71.2,61.3,30.30,East,99,15.0,22.0,71,0.00,,,0.00,meteohub,2013-05-24 18:46:00,
2013-05-24 13:51:00,71.4,61.9,30.30,ESE,110,13.0,22.0,72,0.00,,,0.00,meteohub,2013-05-24 18:51:00,
2013-05-24 13:56:00,71.4,61.5,30.29,ESE,118,12.0,22.0,71,0.00,,,0.00,meteohub,2013-05-24 18:56:00,
2013-05-24 14:01:00,71.4,61.9,30.29,ESE,105,11.0,20.0,72,0.00,,,0.00,meteohub,2013-05-24 19:01:00,
2013-05-24 14:06:00,71.8,61.9,30.29,East,85,6.0,20.0,71,0.00,,,0.00,meteohub,2013-05-24 19:06:00,
2013-05-24 14:11:00,71.8,62.2,30.29,East,94,18.0,21.0,72,0.00,,,0.00,meteohub,2013-05-24 19:11:00,
2013-05-24 14:16:00,72.1,62.2,30.29,SE,130,9.0,21.0,71,0.00,,,0.00,meteohub,2013-05-24 19:16:00,
2013-05-24 14:21:00,72.3,62.4,30.29,ESE,106,16.0,20.0,71,0.00,,,0.00,meteohub,2013-05-24 19:21:00,
2013-05-24 14:26:00,72.3,62.4,30.29,SE,139,8.0,20.0,71,0.00,,,0.00,meteohub,2013-05-24 19:26:00,
2013-05-24 14:31:00,72.1,62.6,30.29,ESE,113,8.0,19.0,72,0.00,,,0.00,meteohub,2013-05-24 19:31:00,
2013-05-24 14:36:00,72.1,62.6,30.29,East,100,9.0,20.0,72,0.00,,,0.00,meteohub,2013-05-24 19:36:00,
2013-05-24 14:41:00,72.1,62.6,30.29,East,100,11.0,20.0,72,0.00,,,0.00,meteohub,2013-05-24 19:41:00,
2013-05-24 14:46:00,72.0,62.4,30.29,ESE,118,15.0,20.0,72,0.00,,,0.00,meteohub,2013-05-24 19:46:00,
2013-05-24 14:51:00,72.1,62.6,30.29,ESE,110,14.0,20.0,72,0.00,,,0.00,meteohub,2013-05-24 19:51:00,
2013-05-24 14:56:00,72.5,63.0,30.28,East,82,11.0,20.0,72,0.00,,,0.00,meteohub,2013-05-24 19:56:00,
2013-05-24 15:01:00,72.7,62.8,30.28,East,93,17.0,20.0,71,0.00,,,0.00,meteohub,2013-05-24 20:01:00,
2013-05-24 15:06:00,72.9,63.0,30.28,ESE,106,11.0,20.0,71,0.00,,,0.00,meteohub,2013-05-24 20:06:00,
2013-05-24 15:11:00,73.2,63.3,30.28,SE,124,11.0,20.0,71,0.00,,,0.00,meteohub,2013-05-24 20:11:00,
2013-05-24 15:16:00,73.6,63.7,30.27,East,100,11.0,21.0,71,0.00,,,0.00,meteohub,2013-05-24 20:16:00,
2013-05-24 15:21:00,73.8,63.3,30.27,ESE,112,19.0,21.0,70,0.00,,,0.00,meteohub,2013-05-24 20:21:00,
2013-05-24 15:26:00,73.9,63.9,30.27,SE,127,11.0,22.0,71,0.00,,,0.00,meteohub,2013-05-24 20:26:00,
2013-05-24 15:31:00,74.1,63.7,30.26,ESE,114,16.0,22.0,70,0.00,,,0.00,meteohub,2013-05-24 20:31:00,
2013-05-24 15:36:00,74.8,64.4,30.26,ENE,77,19.0,22.0,70,0.00,,,0.00,meteohub,2013-05-24 20:36:00,
2013-05-24 15:41:00,74.7,64.2,30.25,ESE,118,16.0,24.0,70,0.00,,,0.00,meteohub,2013-05-24 20:41:00,
2013-05-24 15:46:00,74.7,64.2,30.25,ESE,118,16.0,24.0,70,0.00,,,0.00,meteohub,2013-05-24 20:46:00,
2013-05-24 15:51:00,74.8,64.4,30.25,East,97,17.0,27.0,70,0.00,,,0.00,meteohub,2013-05-24 20:51:00,
2013-05-24 15:56:00,75.4,64.6,30.25,SE,124,15.0,27.0,69,0.00,,,0.00,meteohub,2013-05-24 20:56:00,
2013-05-24 16:02:00,75.4,64.6,30.24,SE,127,14.0,27.0,69,0.00,,,0.00,meteohub,2013-05-24 21:02:00,
2013-05-24 16:07:00,75.7,64.8,30.25,SE,124,13.0,24.0,69,0.00,,,0.00,meteohub,2013-05-24 21:07:00,
2013-05-24 16:12:00,76.1,65.1,30.24,ESE,103,21.0,22.0,69,0.00,,,0.00,meteohub,2013-05-24 21:12:00,
2013-05-24 16:17:00,76.3,65.3,30.24,ESE,104,15.0,21.0,69,0.00,,,0.00,meteohub,2013-05-24 21:17:00,
2013-05-24 16:22:00,76.3,65.3,30.24,SE,124,8.0,21.0,69,0.00,,,0.00,meteohub,2013-05-24 21:22:00,
2013-05-24 16:27:00,76.3,64.9,30.23,East,99,15.0,21.0,68,0.00,,,0.00,meteohub,2013-05-24 21:27:00,
2013-05-24 16:32:00,76.5,65.5,30.23,SE,124,6.0,20.0,69,0.00,,,0.00,meteohub,2013-05-24 21:32:00,
2013-05-24 16:37:00,76.6,65.7,30.23,SE,132,5.0,20.0,69,0.00,,,0.00,meteohub,2013-05-24 21:37:00,
2013-05-24 16:42:00,76.5,65.5,30.23,ESE,110,15.0,19.0,69,0.00,,,0.00,meteohub,2013-05-24 21:42:00,
2013-05-24 16:47:00,76.5,65.5,30.22,ESE,115,18.0,19.0,69,0.00,,,0.00,meteohub,2013-05-24 21:47:00,
2013-05-24 16:52:00,76.3,65.3,30.22,ESE,119,16.0,22.0,69,0.00,,,0.00,meteohub,2013-05-24 21:52:00,
2013-05-24 16:57:00,76.5,66.0,30.22,ESE,121,8.0,22.0,70,0.00,,,0.00,meteohub,2013-05-24 21:57:00,
2013-05-24 17:02:00,76.5,66.0,30.22,ESE,113,14.0,22.0,70,0.00,,,0.00,meteohub,2013-05-24 22:02:00,
2013-05-24 17:07:00,76.3,65.8,30.22,ESE,103,17.0,24.0,70,0.00,,,0.00,meteohub,2013-05-24 22:07:00,
2013-05-24 17:12:00,76.3,65.8,30.21,ESE,113,12.0,24.0,70,0.00,,,0.00,meteohub,2013-05-24 22:12:00,
2013-05-24 17:17:00,76.3,65.8,30.21,ESE,118,14.0,24.0,70,0.00,,,0.00,meteohub,2013-05-24 22:17:00,
2013-05-24 17:22:00,76.3,65.8,30.21,ESE,115,15.0,21.0,70,0.00,,,0.00,meteohub,2013-05-24 22:22:00,
2013-05-24 17:27:00,75.9,65.8,30.21,ESE,114,11.0,21.0,71,0.00,,,0.00,meteohub,2013-05-24 22:27:00,
2013-05-24 17:32:00,76.3,65.8,30.21,SE,129,4.0,21.0,70,0.00,,,0.00,meteohub,2013-05-24 22:32:00,
2013-05-24 17:37:00,76.1,66.0,30.21,SE,146,11.0,20.0,71,0.00,,,0.00,meteohub,2013-05-24 22:37:00,
2013-05-24 17:42:00,76.1,66.0,30.21,South,177,6.0,17.0,71,0.00,,,0.00,meteohub,2013-05-24 22:42:00,
2013-05-24 17:47:00,76.1,66.0,30.20,SSE,155,10.0,16.0,71,0.00,,,0.00,meteohub,2013-05-24 22:47:00,
2013-05-24 17:52:00,75.9,65.8,30.20,ESE,113,11.0,20.0,71,0.00,,,0.00,meteohub,2013-05-24 22:52:00,
2013-05-24 17:57:00,76.3,66.2,30.20,SE,146,7.0,21.0,71,0.00,,,0.00,meteohub,2013-05-24 22:57:00,
2013-05-24 18:02:00,76.3,66.2,30.19,SE,134,11.0,21.0,71,0.00,,,0.00,meteohub,2013-05-24 23:02:00,
2013-05-24 18:07:00,76.5,66.0,30.19,SE,136,10.0,21.0,70,0.00,,,0.00,meteohub,2013-05-24 23:07:00,
2013-05-24 18:12:00,76.5,66.4,30.19,ESE,103,10.0,21.0,71,0.00,,,0.00,meteohub,2013-05-24 23:12:00,
2013-05-24 18:17:00,76.6,66.6,30.19,SE,127,14.0,22.0,71,0.00,,,0.00,meteohub,2013-05-24 23:17:00,
2013-05-24 18:22:00,76.8,66.2,30.19,ESE,112,13.0,22.0,70,0.00,,,0.00,meteohub,2013-05-24 23:22:00,
2013-05-24 18:27:00,76.6,66.6,30.19,ESE,113,10.0,22.0,71,0.00,,,0.00,meteohub,2013-05-24 23:27:00,
2013-05-24 18:32:00,76.3,66.2,30.19,ESE,114,10.0,19.0,71,0.00,,,0.00,meteohub,2013-05-24 23:32:00,
2013-05-24 18:37:00,76.1,66.0,30.19,East,93,12.0,19.0,71,0.00,,,0.00,meteohub,2013-05-24 23:37:00,
2013-05-24 18:42:00,76.1,66.4,30.19,SE,131,6.0,19.0,72,0.00,,,0.00,meteohub,2013-05-24 23:42:00,
2013-05-24 18:47:00,75.7,66.0,30.19,ESE,121,18.0,18.0,72,0.00,,,0.00,meteohub,2013-05-24 23:47:00,
2013-05-24 18:52:00,75.7,66.0,30.19,SE,124,13.0,22.0,72,0.00,,,0.00,meteohub,2013-05-24 23:52:00,
2013-05-24 18:57:00,75.6,66.4,30.18,ESE,105,16.0,24.0,73,0.00,,,0.00,meteohub,2013-05-24 23:57:00,
2013-05-24 19:02:00,75.6,66.4,30.18,East,91,20.0,24.0,73,0.00,,,0.00,meteohub,2013-05-25 00:02:00,
2013-05-24 19:07:00,75.6,66.4,30.18,East,89,10.0,24.0,73,0.00,,,0.00,meteohub,2013-05-25 00:07:00,
2013-05-24 19:12:00,75.4,66.2,30.18,SSE,148,6.0,22.0,73,0.00,,,0.00,meteohub,2013-05-25 00:12:00,
2013-05-24 19:17:00,75.4,66.2,30.17,ESE,111,14.0,20.0,73,0.00,,,0.00,meteohub,2013-05-25 00:17:00,
2013-05-24 19:22:00,75.4,66.2,30.17,SE,140,11.0,21.0,73,0.00,,,0.00,meteohub,2013-05-25 00:22:00,
2013-05-24 19:27:00,75.2,66.4,30.17,ESE,109,18.0,21.0,74,0.00,,,0.00,meteohub,2013-05-25 00:27:00,
2013-05-24 19:32:00,75.2,66.4,30.17,ESE,106,19.0,22.0,74,0.00,,,0.00,meteohub,2013-05-25 00:32:00,
2013-05-24 19:37:00,75.0,66.2,30.17,ESE,107,16.0,22.0,74,0.00,,,0.00,meteohub,2013-05-25 00:37:00,
2013-05-24 19:42:00,75.0,66.2,30.17,East,100,16.0,22.0,74,0.00,,,0.00,meteohub,2013-05-25 00:42:00,
2013-05-24 19:47:00,75.0,66.2,30.17,ESE,110,14.0,19.0,74,0.00,,,0.00,meteohub,2013-05-25 00:47:00,
2013-05-24 19:52:00,74.8,66.4,30.17,ESE,111,13.0,18.0,75,0.00,,,0.00,meteohub,2013-05-25 00:52:00,
2013-05-24 19:57:00,74.8,66.4,30.17,ESE,103,16.0,18.0,75,0.00,,,0.00,meteohub,2013-05-25 00:57:00,
2013-05-24 20:02:00,74.8,66.4,30.17,East,94,12.0,21.0,75,0.00,,,0.00,meteohub,2013-05-25 01:02:00,
2013-05-24 20:07:00,74.7,66.2,30.17,SE,127,11.0,21.0,75,0.00,,,0.00,meteohub,2013-05-25 01:07:00,
2013-05-24 20:12:00,74.7,66.6,30.17,ESE,110,11.0,21.0,76,0.00,,,0.00,meteohub,2013-05-25 01:12:00,
2013-05-24 20:17:00,74.5,66.4,30.17,ESE,104,10.0,17.0,76,0.00,,,0.00,meteohub,2013-05-25 01:17:00,
2013-05-24 20:22:00,74.5,66.4,30.17,ESE,119,12.0,17.0,76,0.00,,,0.00,meteohub,2013-05-25 01:22:00,
2013-05-24 20:27:00,74.3,66.6,30.17,SE,130,9.0,17.0,77,0.00,,,0.00,meteohub,2013-05-25 01:27:00,
2013-05-24 20:32:00,74.1,66.4,30.17,ESE,110,5.0,16.0,77,0.00,,,0.00,meteohub,2013-05-25 01:32:00,
2013-05-24 20:37:00,73.9,66.2,30.17,SE,130,11.0,19.0,77,0.00,,,0.00,meteohub,2013-05-25 01:37:00,
2013-05-24 20:42:00,73.9,66.6,30.17,SE,135,7.0,19.0,78,0.00,,,0.00,meteohub,2013-05-25 01:42:00,
2013-05-24 20:47:00,73.8,66.4,30.17,ESE,116,14.0,19.0,78,0.00,,,0.00,meteohub,2013-05-25 01:47:00,
2013-05-24 20:52:00,73.8,66.4,30.17,SE,124,9.0,17.0,78,0.00,,,0.00,meteohub,2013-05-25 01:52:00,
2013-05-24 20:57:00,73.6,66.4,30.17,ESE,109,10.0,17.0,78,0.00,,,0.00,meteohub,2013-05-25 01:57:00,
2013-05-24 21:02:00,73.4,66.6,30.17,ESE,111,14.0,17.0,79,0.00,,,0.00,meteohub,2013-05-25 02:02:00,
2013-05-24 21:07:00,73.2,66.4,30.18,SE,132,5.0,17.0,79,0.00,,,0.00,meteohub,2013-05-25 02:07:00,
2013-05-24 21:12:00,73.2,66.4,30.17,ESE,112,11.0,17.0,79,0.00,,,0.00,meteohub,2013-05-25 02:12:00,
2013-05-24 21:17:00,73.2,66.4,30.18,ESE,111,13.0,19.0,79,0.00,,,0.00,meteohub,2013-05-25 02:17:00,
2013-05-24 21:22:00,73.0,66.2,30.18,ESE,118,9.0,19.0,79,0.00,,,0.00,meteohub,2013-05-25 02:22:00,
2013-05-24 21:27:00,72.9,66.4,30.19,SSE,155,9.0,19.0,80,0.00,,,0.00,meteohub,2013-05-25 02:27:00,
2013-05-24 21:32:00,72.9,66.4,30.19,ESE,108,6.0,15.0,80,0.00,,,0.00,meteohub,2013-05-25 02:32:00,
2013-05-24 21:37:00,72.7,66.2,30.19,SE,127,10.0,15.0,80,0.00,,,0.00,meteohub,2013-05-25 02:37:00,
2013-05-24 21:42:00,72.7,66.2,30.19,ESE,111,11.0,15.0,80,0.00,,,0.00,meteohub,2013-05-25 02:42:00,
2013-05-24 21:47:00,72.7,66.2,30.19,ESE,116,13.0,16.0,80,0.00,,,0.00,meteohub,2013-05-25 02:47:00,
2013-05-24 21:52:00,72.5,66.4,30.19,ESE,121,8.0,16.0,81,0.00,,,0.00,meteohub,2013-05-25 02:52:00,
2013-05-24 21:57:00,72.3,66.2,30.19,ESE,122,6.0,14.0,81,0.00,,,0.00,meteohub,2013-05-25 02:57:00,
2013-05-24 22:02:00,72.3,66.2,30.20,ESE,112,6.0,18.0,81,0.00,,,0.00,meteohub,2013-05-25 03:02:00,
2013-05-24 22:07:00,72.3,66.2,30.20,ESE,121,10.0,18.0,81,0.00,,,0.00,meteohub,2013-05-25 03:07:00,
2013-05-24 22:12:00,72.3,66.2,30.20,ESE,103,12.0,18.0,81,0.00,,,0.00,meteohub,2013-05-25 03:12:00,
2013-05-24 22:17:00,72.3,66.2,30.20,East,88,12.0,17.0,81,0.00,,,0.00,meteohub,2013-05-25 03:17:00,
2013-05-24 22:22:00,72.1,66.0,30.21,ESE,119,10.0,17.0,81,0.00,,,0.00,meteohub,2013-05-25 03:22:00,
2013-05-24 22:27:00,72.1,66.0,30.21,South,183,9.0,20.0,81,0.00,,,0.00,meteohub,2013-05-25 03:27:00,
2013-05-24 22:32:00,72.1,66.0,30.21,SSE,167,10.0,20.0,81,0.00,,,0.00,meteohub,2013-05-25 03:32:00,
2013-05-24 22:37:00,72.1,66.0,30.22,SE,146,9.0,19.0,81,0.00,,,0.00,meteohub,2013-05-25 03:37:00,
2013-05-24 22:42:00,72.0,65.8,30.21,SE,134,7.0,19.0,81,0.00,,,0.00,meteohub,2013-05-25 03:42:00,
2013-05-24 22:47:00,72.0,65.8,30.21,SE,124,14.0,23.0,81,0.00,,,0.00,meteohub,2013-05-25 03:47:00,
2013-05-24 22:52:00,72.0,65.8,30.21,SSE,147,10.0,23.0,81,0.00,,,0.00,meteohub,2013-05-25 03:52:00,
2013-05-24 22:57:00,71.8,65.7,30.21,SE,131,8.0,23.0,81,0.00,,,0.00,meteohub,2013-05-25 03:57:00,
2013-05-24 23:01:00,71.8,65.7,30.21,SSE,152,15.0,21.0,81,0.00,,,0.00,meteohub,2013-05-25 04:01:00,
2013-05-24 23:06:00,71.8,65.7,30.21,SE,136,15.0,18.0,81,0.00,,,0.00,meteohub,2013-05-25 04:06:00,
2013-05-24 23:11:00,71.8,65.7,30.21,South,181,11.0,20.0,81,0.00,,,0.00,meteohub,2013-05-25 04:11:00,
2013-05-24 23:16:00,71.6,65.5,30.21,SE,127,8.0,20.0,81,0.00,,,0.00,meteohub,2013-05-25 04:16:00,
2013-05-24 23:21:00,71.4,65.3,30.21,SE,136,7.0,20.0,81,0.00,,,0.00,meteohub,2013-05-25 04:21:00,
2013-05-24 23:26:00,71.4,65.3,30.20,SE,142,8.0,20.0,81,0.00,,,0.00,meteohub,2013-05-25 04:26:00,
2013-05-24 23:31:00,71.4,65.3,30.21,South,191,7.0,20.0,81,0.00,,,0.00,meteohub,2013-05-25 04:31:00,
2013-05-24 23:36:00,71.2,65.1,30.20,SSE,148,5.0,18.0,81,0.00,,,0.00,meteohub,2013-05-25 04:36:00,
2013-05-24 23:41:00,71.2,65.5,30.21,SE,124,9.0,18.0,82,0.00,,,0.00,meteohub,2013-05-25 04:41:00,
2013-05-24 23:46:00,71.1,65.3,30.21,SE,140,10.0,18.0,82,0.00,,,0.00,meteohub,2013-05-25 04:46:00,
2013-05-24 23:51:00,71.1,65.3,30.20,SE,134,5.0,18.0,82,0.00,,,0.00,meteohub,2013-05-25 04:51:00,
2013-05-24 23:56:00,70.9,65.1,30.21,ESE,115,5.0,18.0,82,0.00,,,0.00,meteohub,2013-05-25 04:56:00,